SCP
0 0 0 0 0 0 0 0 0 0 0 0 0 0 0 0 0 0 0 0 0 0 0 0 -0 -0 -0 -0 -0 -0 0 0 0 0 0 0 0 0 0 0 0 0 0
0 0 0 0 0 0 0 0 0 0 0 0 0 0 0 0 0 0 0 0 0 0 0 0 0 -0 -0 -0 0 0 0 0 0 0 0 0 0 0 0 0 0 0 0
0 0 0 0 0 0 0 0 0 0 0 0 0 0 0 0 0 0 0 0 0 0 0 0 0 0 0 0 0 0 0 0 0 0 0 0 0 0 0 0 0 0 0
0 0 0 0 0 0 0 0 0 0 0 0 0 0 0 0 0 0 0 0 0 0 0 0 0 0 0 0 0 0 0 0 0 0 0 0 0 0 0 0 0 0 0
0 0 0 0 0 0 0 0 0 0 0 0 0 0 0 0 0 0 0 0 0 0 0 0 0 0 0 0 0 0 0 0 0 0 0 0 0 0 0 0 0 0 0
0 0 0 0 0 0 0 0 0 0 0 0 0 0 0 0 0 0 0 0 0 0 0 0 0 0 0 0 0 0 0 0 0 0 0 0 0 0 0 0 0 0 0
0 0 0 0 0 0 0 0 0 0 0 0 0 0 0 0 0 0 0 0 0 0 0 0 0 0 0 0 0 0 0 0 0 0 0 0 0 0 0 0 0 0 0
0 0 0 0 0 0 0 0 0 0 0 0 0 0 0 0 0 0 0 0 0 0 0 0 0 0 0 0 0 0 0 0 0 0 0 0 0 0 0 0 0 0 0
0 0 0 0 0 0 0 0 0 0 0 0 0 0 0 0 0 0 0 0 0 0 0 0 0 0 0 0 0 0 0 0 0 0 0 0 0 0 0 0 0 0 0
0 0 0 0 0 0 0 0 0 0 0 0 0 0 0 0 0 0 0 0 0 0 0 0 0 0 0 0 0 0 0 0 0 0 0 0 0 0 0 0 0 0 0
0 0 0 0 0 0 0 0 0 0 0 0 0 0 0 0 0 0 0 0 0 0 0 0 0 0 0 0 0 0 0 0 0 0 0 0 0 0 0 0 0 0 0
0 0 0 0 0 0 0 0 0 0 0 0 0 0 0 0 0 0 0 0 0 0 0 0 0 0 0 0 0 0 0 0 0 0 0 0 0 0 0 0 0 0 0
0 0 0 0 0 0 0 0 0 0 0 0 0 0 0 0 0 0 0 0 0 0 0 0 0 0 0 0 0 0 0 0 0 0 0 0 0 0 0 0 0 0 0
0 0 0 0 0 0 0 0 0 0 0 0 0 0 0 0 0 0 0 0 0 0 0 0 0 0 0 0 0 0 0 0 0 0 0 0 0 0 0 0 0 0 0
0 0 0 0 0 0 0 0 0 0 0 0 0 0 0 0 0 0 0 0 0 0 0 0 0 0 0 0 0 0 0 0 0 0 0 0 0 0 0 0 0 0 0
0 0 0 0 0 0 0 0 0 0 0 0 0 0 0 0 0 0 0 0 0 0 0 0 0 0 0 0 0 0 0 0 0 0 0 0 0 0 0 0 0 0 0
0 0 0 0 0 0 0 0 0 0 0 0 0 0 0 0 0 0 0 0 0 0 0 0 0 0 0 0 0 0 0 0 0 0 0 0 0 0 0 0 0 0 0
0 0 0 0 0 0 0 0 0 0 0 0 0 0 0 0 0 0 0 0 0 0 0 0 0 0 0 0 0 0 0 0 0 0 0 0 0 0 0 0 0 0 0
0 0 0 0 0 0 0 0 0 0 0 0 0 0 0 0 0 0 0 0 0 0 0 0 0 0 0 0 0 0 0 0 0 0 0 0 0 0 0 0 0 0 0
0 0 0 0 0 0 0 0 0 0 0 0 0 0 0 0 0 0 0 0 0 0 0 0 0 0 0 0 0 0 0 0 0 0 0 0 0 0 0 0 0 0 0
0 0 0 0 0 0 0 0 0 0 0 0 0 0 0 0 0 0 0 0 0 0 0 0 0 0 0 0 0 0 0 0 0 0 0 0 0 0 0 0 0 0 0
0 0 0 0 0 0 0 0 0 0 0 0 0 0 0 0 0 0 0 0 0 0 0 0 0 0 0 0 0 0 0 0 0 0 0 0 0 0 0 0 0 0 0
0 0 0 0 0 0 0 0 0 0 0 0 0 0 0 0 0 0 0 0 0 0 0 0 0 0 0 0 0 0 0 0 0 0 0 0 0 0 0 0 0 0 0
0 0 0 0 0 0 0 0 0 0 0 0 0 0 0 0 0 0 0 0 0 0 0 0 0 0 0 0 0 0 0 0 0 0 0 0 0 0 0 0 0 0 0
0 0 0 0 0 0 0 0 0 0 0 0 0 0 0 0 0 0 0 0 0 0 0 0 0 0 0 0 0 0 0 0 0 0 0 0 0 0 0 0 0 0 0
0 0 0 0 0 0 0 0 0 0 0 0 0 0 0 0 0 0 0 0 0 0 0 0 0 0 0 0 0 0 0 0 0 0 0 0 0 0 0 0 0 0 0
Wind_Speed_500mb
26 24 23 23 20 18 18 17 18 18 18 18 20 21 20 19 19 17 19 19 18 17 17 19 20 20 20 19 19 18 17 17 17 17 17 15 17 16 17 19 21 21 22
28 27 27 25 22 21 19 18 19 20 21 22 21 21 21 21 20 19 19 20 20 20 21 22 24 25 25 25 24 23 21 21 21 20 18 19 18 18 13 17 17 20 21
28 27 26 27 24 22 23 23 23 25 26 26 26 26 28 27 25 23 24 24 25 26 26 27 28 29 30 30 30 28 25 25 22 21 21 21 19 20 19 18 18 19 20
30 31 30 28 26 28 29 30 30 31 32 34 35 33 31 30 26 26 27 26 25 25 26 28 30 32 31 31 33 30 27 25 22 20 20 20 18 16 16 17 17 18 20
35 38 38 34 33 34 35 36 36 37 38 37 34 29 29 33 35 37 36 32 31 30 28 30 33 32 28 28 26 25 23 20 21 21 19 15 14 17 18 20 22 23 25
40 42 44 42 41 41 42 43 40 39 38 36 35 36 35 37 42 40 37 35 33 32 31 34 36 29 24 23 22 20 20 23 25 22 21 20 20 21 21 22 23 24 25
42 43 44 44 45 47 46 44 43 41 41 38 42 45 43 43 42 32 27 23 31 32 35 42 34 29 27 25 23 22 24 26 26 24 24 23 25 24 21 24 26 29 28
46 46 46 46 48 49 49 48 47 49 49 41 45 39 36 38 34 25 26 23 24 31 38 36 31 31 31 29 28 27 31 32 31 30 28 28 27 26 24 26 27 31 34
53 53 50 50 50 52 57 52 49 53 52 46 45 41 17 15 15 17 17 19 27 33 36 34 34 35 36 37 35 37 42 40 38 34 33 30 26 24 22 26 29 33 37
55 59 60 57 56 57 61 56 53 53 54 52 49 54 53 51 28 19 23 30 33 37 43 41 41 42 39 43 44 45 42 40 35 37 33 27 26 29 30 35 38 39 37
60 63 67 65 67 66 65 65 62 60 56 55 56 54 52 54 56 63 51 42 42 45 46 47 46 49 45 46 52 49 51 40 38 39 35 32 33 34 36 38 37 34 34
56 60 66 71 69 73 73 71 72 70 67 63 61 61 61 60 58 61 64 67 64 60 59 55 53 55 51 56 56 46 42 36 40 37 31 34 37 36 37 35 34 33 30
64 64 64 68 69 72 74 75 77 80 74 75 69 67 66 68 65 66 63 62 65 64 64 64 60 58 53 50 59 61 52 51 46 39 40 41 39 35 34 33 31 30 27
62 62 65 69 71 67 70 76 84 85 83 83 81 77 75 73 69 70 76 67 66 64 67 69 63 58 54 56 50 58 56 49 47 46 45 42 37 34 33 32 31 29 28
62 65 64 63 67 68 66 70 75 82 86 90 88 82 80 78 73 72 71 77 77 59 60 71 66 64 58 59 64 59 55 54 50 46 44 44 38 36 34 32 30 29 28
56 56 61 64 64 64 66 70 61 74 82 84 85 81 83 82 76 72 75 73 77 77 68 62 61 61 57 57 59 67 59 58 57 47 51 43 40 36 33 32 29 29 32
61 68 69 68 65 63 64 74 73 72 76 80 83 83 79 80 78 74 76 82 87 80 83 73 58 64 62 65 69 71 67 63 52 50 49 45 40 36 34 34 31 32 33
24 29 33 40 51 58 64 63 67 67 66 69 71 77 81 85 82 74 78 78 78 72 72 77 81 80 78 68 73 71 72 64 58 54 51 44 42 39 38 36 33 31 33
21 26 32 34 39 43 47 51 56 60 62 64 64 66 65 61 67 65 70 69 71 68 70 78 79 77 65 70 71 73 69 60 59 58 53 47 44 42 41 37 34 34 33
32 34 36 37 40 43 45 48 52 55 56 58 57 57 58 62 65 64 65 66 69 74 68 74 76 77 72 73 71 75 69 67 64 55 54 48 46 44 41 39 37 36 34
42 45 48 47 48 48 48 50 52 57 59 59 60 61 62 64 65 66 69 70 68 73 76 73 76 79 80 78 77 77 74 65 61 59 51 50 47 43 42 42 40 37 35
43 47 49 52 55 55 55 55 54 54 55 60 64 65 68 69 69 70 71 74 74 78 81 80 80 85 84 80 82 76 72 70 66 63 54 49 47 44 44 43 40 37 36
47 49 52 55 57 58 58 61 63 65 62 61 62 63 65 70 73 74 75 75 76 78 79 80 83 83 84 82 80 75 73 73 68 54 44 48 41 49 48 45 41 38 36
50 52 53 55 58 57 58 60 62 64 67 70 70 67 67 68 69 71 72 74 75 75 76 78 81 81 78 72 69 71 69 70 62 55 46 40 49 50 47 45 40 38 38
50 53 56 58 60 60 61 61 62 64 66 66 66 70 73 73 68 68 72 73 74 76 77 76 77 76 74 72 70 66 66 65 68 64 52 46 47 49 48 44 40 41 40
52 52 54 56 58 61 62 66 65 66 68 67 67 66 66 69 67 67 70 69 75 76 75 73 72 74 76 75 75 74 74 79 77 57 49 51 55 45 38 47 43 42 36
Wind_Direction_500mb
222 230 240 237 240 240 242 252 256 260 264 275 277 278 279 280 281 283 284 287 288 286 285 284 283 283 282 282 282 282 281 281 281 279 280 276 275 278 275 284 290 295 302
226 229 235 239 239 247 253 257 267 269 271 272 273 277 284 284 285 286 283 282 282 281 280 280 279 279 279 279 278 277 279 280 280 278 275 272 270 275 284 283 285 291 297
232 234 240 246 252 254 257 258 259 263 266 270 273 275 277 277 280 284 286 282 281 279 278 275 276 274 272 272 271 273 274 277 276 273 272 270 268 265 274 282 287 290 290
246 244 244 248 250 253 256 258 261 262 266 268 270 272 276 282 286 286 283 280 276 276 277 277 276 275 272 268 264 265 270 272 266 261 260 260 262 264 270 277 286 295 300
244 248 252 255 254 255 257 258 258 261 263 269 273 280 280 285 287 288 285 279 269 265 273 277 272 269 275 273 268 265 267 265 267 268 268 266 266 273 282 287 288 290 295
246 246 249 251 253 255 256 257 258 257 263 271 276 274 277 276 281 283 281 274 266 266 268 272 265 264 268 273 267 258 259 267 267 267 265 265 269 277 283 287 291 293 296
245 246 247 248 249 253 260 254 259 262 264 268 269 273 279 280 281 278 269 272 260 265 272 265 257 260 266 268 264 263 265 266 268 268 269 265 264 269 282 284 282 287 290
250 251 252 251 251 252 254 251 254 261 264 259 257 272 287 291 294 272 263 263 271 264 262 250 255 262 267 268 265 268 270 267 268 267 266 268 270 271 269 271 274 282 286
253 257 257 255 252 250 256 257 258 254 260 256 252 248 258 257 290 283 264 257 262 254 243 256 273 270 269 267 265 272 268 267 267 265 264 260 260 264 271 277 283 285 287
251 256 261 260 257 254 256 259 258 260 255 254 251 248 249 254 265 279 247 242 253 249 254 254 257 257 262 267 263 276 266 262 263 264 254 253 265 278 276 278 281 286 289
256 257 259 261 261 257 255 256 256 255 258 252 251 256 253 252 255 254 261 256 256 256 252 250 253 256 260 261 272 273 267 258 260 246 249 266 276 276 275 278 280 282 284
264 261 261 260 261 260 257 257 255 255 255 256 253 252 252 252 253 250 252 255 257 253 251 252 251 262 262 265 266 272 262 256 245 244 258 273 274 272 273 275 278 282 287
269 271 269 266 263 263 266 265 259 254 254 253 253 253 252 253 258 259 260 261 256 255 251 249 249 257 271 262 269 265 256 252 240 248 264 274 266 267 271 275 277 279 282
266 270 270 268 265 267 267 265 263 261 258 256 252 251 254 255 254 256 255 254 253 255 255 253 258 256 256 264 264 259 253 248 246 257 266 266 265 268 268 269 271 275 274
261 262 263 263 266 268 269 271 270 263 257 259 258 254 255 256 258 258 259 257 256 252 253 254 249 259 259 256 258 257 246 246 250 262 266 261 261 260 261 262 264 263 266
259 261 262 262 261 263 266 270 271 273 260 254 252 258 261 258 259 262 260 259 257 259 259 262 258 257 258 261 256 254 241 249 252 257 254 252 252 253 255 258 259 260 264
258 259 257 259 259 261 263 266 270 267 267 264 265 267 266 263 260 260 261 261 261 260 261 265 256 253 255 253 254 242 237 242 256 253 249 245 248 251 253 255 255 259 267
281 277 273 266 261 261 263 266 266 267 266 265 264 264 262 263 262 258 259 257 259 262 255 259 260 257 259 259 252 239 244 237 240 241 242 239 243 246 250 253 253 257 262
299 294 289 284 279 274 269 268 268 269 270 269 269 268 268 265 268 266 259 264 255 258 260 261 258 255 249 252 239 243 234 236 236 236 237 237 239 243 246 249 249 252 256
307 302 300 296 292 287 285 282 277 273 272 272 272 273 265 268 267 266 261 264 266 257 255 251 254 256 253 247 242 238 234 232 232 232 234 233 236 238 241 244 245 248 251
301 298 296 295 293 294 295 293 291 290 284 278 273 272 270 269 267 265 264 262 260 264 256 254 256 253 250 241 239 238 235 234 234 233 233 231 232 239 242 243 241 245 250
306 305 303 299 298 296 292 288 286 285 284 284 281 278 278 275 272 270 269 267 264 260 259 256 256 254 254 250 248 238 231 226 231 233 232 234 232 237 243 243 242 244 248
312 310 311 311 310 309 306 302 296 290 285 281 280 278 275 274 274 273 272 269 267 266 264 259 255 255 254 253 246 237 238 239 235 234 234 233 243 248 239 241 241 245 246
313 313 311 311 310 310 307 306 302 298 295 291 286 281 279 276 273 273 272 271 270 267 264 260 256 255 252 251 249 247 241 233 227 229 228 240 247 237 241 239 241 245 238
311 310 309 308 307 307 308 306 303 298 295 292 289 287 284 281 278 276 273 271 269 266 263 261 257 252 249 245 240 232 225 234 227 227 228 241 243 242 236 238 240 235 222
308 306 305 304 303 304 305 304 304 302 297 295 291 284 281 282 280 276 272 269 267 265 262 261 261 257 250 243 235 234 234 226 222 218 226 238 239 227 232 236 233 221 229
Wind_Speed_850mb
26 24 23 23 20 18 18 17 18 18 18 18 20 21 20 19 19 17 19 19 18 17 17 19 20 20 20 19 19 18 17 17 17 17 17 15 17 16 17 19 21 21 22
28 27 27 25 22 21 19 18 19 20 21 22 21 21 21 21 20 19 19 20 20 20 21 22 24 25 25 25 24 23 21 21 21 20 18 19 18 18 13 17 17 20 21
28 27 26 27 24 22 23 23 23 25 26 26 26 26 28 27 25 23 24 24 25 26 26 27 28 29 30 30 30 28 25 25 22 21 21 21 19 20 19 18 18 19 20
30 31 30 28 26 28 29 30 30 31 32 34 35 33 31 30 26 26 27 26 25 25 26 28 30 32 31 31 33 30 27 25 22 20 20 20 18 16 16 17 17 18 20
35 38 38 34 33 34 35 36 36 37 38 37 34 29 29 33 35 37 36 32 31 30 28 30 33 32 28 28 26 25 23 20 21 21 19 15 14 17 18 20 22 23 25
40 42 44 42 41 41 42 43 40 39 38 36 35 36 35 37 42 40 37 35 33 32 31 34 36 29 24 23 22 20 20 23 25 22 21 20 20 21 21 22 23 24 25
42 43 44 44 45 47 46 44 43 41 41 38 42 45 43 43 42 32 27 23 31 32 35 42 34 29 27 25 23 22 24 26 26 24 24 23 25 24 21 24 26 29 28
46 46 46 46 48 49 49 48 47 49 49 41 45 39 36 38 34 25 26 23 24 31 38 36 31 31 31 29 28 27 31 32 31 30 28 28 27 26 24 26 27 31 34
53 53 50 50 50 52 57 52 49 53 52 46 45 41 17 15 15 17 17 19 27 33 36 34 34 35 36 37 35 37 42 40 38 34 33 30 26 24 22 26 29 33 37
55 59 60 57 56 57 61 56 53 53 54 52 49 54 53 51 28 19 23 30 33 37 43 41 41 42 39 43 44 45 42 40 35 37 33 27 26 29 30 35 38 39 37
60 63 67 65 67 66 65 65 62 60 56 55 56 54 52 54 56 63 51 42 42 45 46 47 46 49 45 46 52 49 51 40 38 39 35 32 33 34 36 38 37 34 34
56 60 66 71 69 73 73 71 72 70 67 63 61 61 61 60 58 61 64 67 64 60 59 55 53 55 51 56 56 46 42 36 40 37 31 34 37 36 37 35 34 33 30
64 64 64 68 69 72 74 75 77 80 74 75 69 67 66 68 65 66 63 62 65 64 64 64 60 58 53 50 59 61 52 51 46 39 40 41 39 35 34 33 31 30 27
62 62 65 69 71 67 70 76 84 85 83 83 81 77 75 73 69 70 76 67 66 64 67 69 63 58 54 56 50 58 56 49 47 46 45 42 37 34 33 32 31 29 28
62 65 64 63 67 68 66 70 75 82 86 90 88 82 80 78 73 72 71 77 77 59 60 71 66 64 58 59 64 59 55 54 50 46 44 44 38 36 34 32 30 29 28
56 56 61 64 64 64 66 70 61 74 82 84 85 81 83 82 76 72 75 73 77 77 68 62 61 61 57 57 59 67 59 58 57 47 51 43 40 36 33 32 29 29 32
61 68 69 68 65 63 64 74 73 72 76 80 83 83 79 80 78 74 76 82 87 80 83 73 58 64 62 65 69 71 67 63 52 50 49 45 40 36 34 34 31 32 33
24 29 33 40 51 58 64 63 67 67 66 69 71 77 81 85 82 74 78 78 78 72 72 77 81 80 78 68 73 71 72 64 58 54 51 44 42 39 38 36 33 31 33
21 26 32 34 39 43 47 51 56 60 62 64 64 66 65 61 67 65 70 69 71 68 70 78 79 77 65 70 71 73 69 60 59 58 53 47 44 42 41 37 34 34 33
32 34 36 37 40 43 45 48 52 55 56 58 57 57 58 62 65 64 65 66 69 74 68 74 76 77 72 73 71 75 69 67 64 55 54 48 46 44 41 39 37 36 34
42 45 48 47 48 48 48 50 52 57 59 59 60 61 62 64 65 66 69 70 68 73 76 73 76 79 80 78 77 77 74 65 61 59 51 50 47 43 42 42 40 37 35
43 47 49 52 55 55 55 55 54 54 55 60 64 65 68 69 69 70 71 74 74 78 81 80 80 85 84 80 82 76 72 70 66 63 54 49 47 44 44 43 40 37 36
47 49 52 55 57 58 58 61 63 65 62 61 62 63 65 70 73 74 75 75 76 78 79 80 83 83 84 82 80 75 73 73 68 54 44 48 41 49 48 45 41 38 36
50 52 53 55 58 57 58 60 62 64 67 70 70 67 67 68 69 71 72 74 75 75 76 78 81 81 78 72 69 71 69 70 62 55 46 40 49 50 47 45 40 38 38
50 53 56 58 60 60 61 61 62 64 66 66 66 70 73 73 68 68 72 73 74 76 77 76 77 76 74 72 70 66 66 65 68 64 52 46 47 49 48 44 40 41 40
52 52 54 56 58 61 62 66 65 66 68 67 67 66 66 69 67 67 70 69 75 76 75 73 72 74 76 75 75 74 74 79 77 57 49 51 55 45 38 47 43 42 36
Wind_Direction_850mb
222 230 240 237 240 240 242 252 256 260 264 275 277 278 279 280 281 283 284 287 288 286 285 284 283 283 282 282 282 282 281 281 281 279 280 276 275 278 275 284 290 295 302
226 229 235 239 239 247 253 257 267 269 271 272 273 277 284 284 285 286 283 282 282 281 280 280 279 279 279 279 278 277 279 280 280 278 275 272 270 275 284 283 285 291 297
232 234 240 246 252 254 257 258 259 263 266 270 273 275 277 277 280 284 286 282 281 279 278 275 276 274 272 272 271 273 274 277 276 273 272 270 268 265 274 282 287 290 290
246 244 244 248 250 253 256 258 261 262 266 268 270 272 276 282 286 286 283 280 276 276 277 277 276 275 272 268 264 265 270 272 266 261 260 260 262 264 270 277 286 295 300
244 248 252 255 254 255 257 258 258 261 263 269 273 280 280 285 287 288 285 279 269 265 273 277 272 269 275 273 268 265 267 265 267 268 268 266 266 273 282 287 288 290 295
246 246 249 251 253 255 256 257 258 257 263 271 276 274 277 276 281 283 281 274 266 266 268 272 265 264 268 273 267 258 259 267 267 267 265 265 269 277 283 287 291 293 296
245 246 247 248 249 253 260 254 259 262 264 268 269 273 279 280 281 278 269 272 260 265 272 265 257 260 266 268 264 263 265 266 268 268 269 265 264 269 282 284 282 287 290
250 251 252 251 251 252 254 251 254 261 264 259 257 272 287 291 294 272 263 263 271 264 262 250 255 262 267 268 265 268 270 267 268 267 266 268 270 271 269 271 274 282 286
253 257 257 255 252 250 256 257 258 254 260 256 252 248 258 257 290 283 264 257 262 254 243 256 273 270 269 267 265 272 268 267 267 265 264 260 260 264 271 277 283 285 287
251 256 261 260 257 254 256 259 258 260 255 254 251 248 249 254 265 279 247 242 253 249 254 254 257 257 262 267 263 276 266 262 263 264 254 253 265 278 276 278 281 286 289
256 257 259 261 261 257 255 256 256 255 258 252 251 256 253 252 255 254 261 256 256 256 252 250 253 256 260 261 272 273 267 258 260 246 249 266 276 276 275 278 280 282 284
264 261 261 260 261 260 257 257 255 255 255 256 253 252 252 252 253 250 252 255 257 253 251 252 251 262 262 265 266 272 262 256 245 244 258 273 274 272 273 275 278 282 287
269 271 269 266 263 263 266 265 259 254 254 253 253 253 252 253 258 259 260 261 256 255 251 249 249 257 271 262 269 265 256 252 240 248 264 274 266 267 271 275 277 279 282
266 270 270 268 265 267 267 265 263 261 258 256 252 251 254 255 254 256 255 254 253 255 255 253 258 256 256 264 264 259 253 248 246 257 266 266 265 268 268 269 271 275 274
261 262 263 263 266 268 269 271 270 263 257 259 258 254 255 256 258 258 259 257 256 252 253 254 249 259 259 256 258 257 246 246 250 262 266 261 261 260 261 262 264 263 266
259 261 262 262 261 263 266 270 271 273 260 254 252 258 261 258 259 262 260 259 257 259 259 262 258 257 258 261 256 254 241 249 252 257 254 252 252 253 255 258 259 260 264
258 259 257 259 259 261 263 266 270 267 267 264 265 267 266 263 260 260 261 261 261 260 261 265 256 253 255 253 254 242 237 242 256 253 249 245 248 251 253 255 255 259 267
281 277 273 266 261 261 263 266 266 267 266 265 264 264 262 263 262 258 259 257 259 262 255 259 260 257 259 259 252 239 244 237 240 241 242 239 243 246 250 253 253 257 262
299 294 289 284 279 274 269 268 268 269 270 269 269 268 268 265 268 266 259 264 255 258 260 261 258 255 249 252 239 243 234 236 236 236 237 237 239 243 246 249 249 252 256
307 302 300 296 292 287 285 282 277 273 272 272 272 273 265 268 267 266 261 264 266 257 255 251 254 256 253 247 242 238 234 232 232 232 234 233 236 238 241 244 245 248 251
301 298 296 295 293 294 295 293 291 290 284 278 273 272 270 269 267 265 264 262 260 264 256 254 256 253 250 241 239 238 235 234 234 233 233 231 232 239 242 243 241 245 250
306 305 303 299 298 296 292 288 286 285 284 284 281 278 278 275 272 270 269 267 264 260 259 256 256 254 254 250 248 238 231 226 231 233 232 234 232 237 243 243 242 244 248
312 310 311 311 310 309 306 302 296 290 285 281 280 278 275 274 274 273 272 269 267 266 264 259 255 255 254 253 246 237 238 239 235 234 234 233 243 248 239 241 241 245 246
313 313 311 311 310 310 307 306 302 298 295 291 286 281 279 276 273 273 272 271 270 267 264 260 256 255 252 251 249 247 241 233 227 229 228 240 247 237 241 239 241 245 238
311 310 309 308 307 307 308 306 303 298 295 292 289 287 284 281 278 276 273 271 269 266 263 261 257 252 249 245 240 232 225 234 227 227 228 241 243 242 236 238 240 235 222
308 306 305 304 303 304 305 304 304 302 297 295 291 284 281 282 280 276 272 269 267 265 262 261 261 257 250 243 235 234 234 226 222 218 226 238 239 227 232 236 233 221 229